This is the latest recevied weather packets stored in our database for station/object KB0BS-13. If no packets are shown the sender has not sent any weather packets the latest 1 day(s).
| Time | Temp. | Humidity | Pressure | Rain* | Wind** | Luminosity | Snow |
|---|---|---|---|---|---|---|---|
| 1778057560 | -0.56° C | 86% | 1011.5 hPa | 0 mm | - | 0 W/m² | - |
| 1778056650 | -0.56° C | 86% | 1011.4 hPa | 0 mm | - | 0 W/m² | - |
| 1778055735 | -0.56° C | 86% | 1011.5 hPa | 0 mm | - | 0 W/m² | - |
| 1778055433 | -1.11° C | 86% | 1011.6 hPa | 0 mm | - | 0 W/m² | - |
| 1778055130 | -1.11° C | 87% | 1011.5 hPa | 0 mm | - | 0 W/m² | - |
| 1778054221 | -1.11° C | 87% | 1011.3 hPa | 0 mm | - | 0 W/m² | - |
| 1778053918 | -1.11° C | 88% | 1011.4 hPa | 0 mm | - | 0 W/m² | - |
| 1778052404 | -1.67° C | 89% | 1011.6 hPa | 0 mm | - | 0 W/m² | - |
| 1778052102 | -1.67° C | 90% | 1011.6 hPa | 0 mm | - | 0 W/m² | - |
| 1778051497 | -1.67° C | 90% | 1011.5 hPa | 0 mm | - | 0 W/m² | - |
| 1778051194 | -2.22° C | 90% | 1011.5 hPa | 0 mm | - | 0 W/m² | - |
| 1778050891 | -1.67° C | 90% | 1011.6 hPa | 0 mm | - | 0 W/m² | - |
| 1778050589 | -1.67° C | 89% | 1011.5 hPa | 0 mm | - | 0 W/m² | - |
| 1778049982 | -1.67° C | 89% | 1011.5 hPa | 0 mm | - | 0 W/m² | - |
| 1778049376 | -1.67° C | 89% | 1011.8 hPa | 0 mm | - | 0 W/m² | - |
| 1778049073 | -1.67° C | 89% | 1011.7 hPa | 0 mm | - | 0 W/m² | - |
| 1778048164 | -1.67° C | 89% | 1011.7 hPa | 0 mm | - | 0 W/m² | - |
| 1778047862 | -1.67° C | 89% | 1011.4 hPa | 0 mm | - | 0 W/m² | - |
| 1778046954 | -1.67° C | 90% | 1011.7 hPa | 0 mm | - | 0 W/m² | - |
| 1778046043 | -1.67° C | 89% | 1011.5 hPa | 0 mm | - | 0 W/m² | - |
| 1778045504 | -1.67° C | 89% | 1011.7 hPa | 0 mm | - | 0 W/m² | - |
| 1778045202 | -1.67° C | 89% | 1011.7 hPa | 0 mm | - | 0 W/m² | - |
| 1778044900 | -2.22° C | 89% | 1011.7 hPa | 0 mm | - | 0 W/m² | - |
| 1778044597 | -1.67° C | 88% | 1011.6 hPa | 0 mm | - | 0 W/m² | - |
| 1778044293 | -1.11° C | 88% | 1011.6 hPa | 0 mm | - | 0 W/m² | - |
* Rain latest hour (hover to see other rain measurements)
** Current wind speed in m/s (hover to see current wind gust speed)